Location: Góry Miechowskie
(50.3599°N, 20.1803°E)
Time: 22:04:26
(UTC+00:00)

Transit 2A Rocket - Pass Details

Date: 22 September 2024
Orbit: 582 x 908 km, 66.7° (Epoch: 09 October)

Event Time Altitude Azimuth Distance (km) Brightness Sun altitude
Exits shadow 21:11:37 21° 33° (NNE) 1,923 7.2 -37.0°
Drops below altitude 10° 21:13:30 10° 36° (NE) 2,591 8.0 -37.1°
Sets 21:16:00 0° 38° (NE) 3,517 8.7 -37.3°
